Regional Weather Roundup
Issued by NWS

Home | Current Version | Previous Version | Graphics & Text | Print | Product List | Glossary Off
Versions: 1 2 3 4 5 6 7 8 9 10 11 12 13 14 15 16 17 18 19 20 21 22 23 24 25 26 27 28 29 30 31 32 33 34 35 36 37 38 39 40 41 42 43 44 45 46 47 48 49 50

000
ASUS43 KMKX 282100
RWRWI

WISCONSIN REGIONAL WEATHER ROUNDUP
NATIONAL WEATHER SERVICE MILWAUKEE/SULLIVAN WI
400 PM CDT THU AUG 28 2014

NOTE: "FAIR" INDICATES FEW OR NO CLOUDS BELOW 12,000 FEET WITH NO
SIGNIFICANT WEATHER AND/OR OBSTRUCTIONS TO VISIBILITY.

WIZ001-002-006>008-014>016-023>028-282200-
NORTHWEST WISCONSIN

CITY           SKY/WX    TMP DP  RH WIND       PRES   REMARKS
SUPERIOR ARPT  PTSUNNY   67  58  75 NE9       30.02F
ASHLAND        PTSUNNY   71  60  68 N9        30.04F
HAYWARD        CLOUDY    71  58  63 SE7       30.05F
SIREN          CLOUDY    73  59  62 SE6       30.02F
RICE LAKE      CLOUDY    71  59  66 E8        30.05S
LADYSMITH      PTSUNNY   71  59  65 SE5       30.07F
EAU CLAIRE     NOT AVBL
MENOMONIE      RAIN      69  64  85 SE7       30.03F
NEW RICHMOND   DRIZZLE   69  62  78 SE6       30.02F
OSCEOLA        DRIZZLE   70  63  76 SE9       30.03F
$$

WIZ003>005-009-010-017-018-282200-
NORTH CENTRAL WISCONSIN

CITY           SKY/WX    TMP DP  RH WIND       PRES   REMARKS
WOODRUFF       PTSUNNY   72  55  54 SE6       30.09S
RHINELANDER    CLOUDY    69  55  60 VRB6      30.10F
EAGLE RIVER    CLOUDY    70  50  48 CALM      30.09S
LAND O LAKES   PTSUNNY   72  47  41 CALM      30.09F
PHILLIPS       CLOUDY    70  57  64 S8        30.07F
TOMAHAWK       CLOUDY    68  57  68 CALM      30.09F
MEDFORD        CLOUDY    66  60  81 SE7       30.08F
MERRILL        CLOUDY    68  59  74 S3        30.09F
$$

WIZ029-030-035-036-043>047-282200-
CENTRAL WISCONSIN

CITY           SKY/WX    TMP DP  RH WIND       PRES   REMARKS
WAUSAU         CLOUDY    69  60  73 SE6       30.07F
MOSINEE        CLOUDY    66  63  88 SE5       30.09F
MARSHFIELD     CLOUDY    71  61  70 SE6       30.06F
STEVENS POINT  CLOUDY    68  60  75 E6        30.09F
WAUPACA        CLOUDY    73  61  66 E12       30.09F
WAUTOMA        NOT AVBL
WISC RAPIDS    CLOUDY    72  60  66 S7        30.07F
CAMP DOUGLAS   NOT AVBL
$$

WIZ011>013-019>022-031-037>040-048>050-282200-
NORTHEAST WISCONSIN

CITY           SKY/WX    TMP DP  RH WIND       PRES   REMARKS
ANTIGO         CLOUDY    68  59  71 SE8       30.10S
STURGEON BAY   PTSUNNY   66  55  68 S10G17    30.12F
GREEN BAY      CLOUDY    69  59  70 SE12      30.10F
MANITOWOC      NOT AVBL
APPLETON       CLOUDY    70  57  64 SE8       30.10F
CLINTONVILLE   CLOUDY    70  59  68 S7        30.09F
OSHKOSH        CLOUDY    70  58  65 SE8       30.08F
$$

WIZ032>034-041-042-053>061-282200-
SOUTHWEST WISCONSIN

CITY           SKY/WX    TMP DP  RH WIND       PRES   REMARKS
LA CROSSE      CLOUDY    70  65  84 SE6       30.01F
SPARTA         DRIZZLE   70  64  81 E6        30.04F
VIROQUA        CLOUDY    68  67  96 E12       30.04F
BOSCOBEL       CLOUDY    74  64  71 VRB5      30.02F
PRAIRIE DU CHI CLOUDY    72  62  71 E8        30.00F
PLATTEVILLE    FAIR      72  65  80 E12       30.04F
$$

WIZ056-057-062-063-064-067-068-282200-
SOUTH CENTRAL WISCONSIN

CITY           SKY/WX    TMP DP  RH WIND       PRES   REMARKS
BARABOO/DELLS  DRIZZLE   72  59  64 SE5       30.06F
LONE ROCK      NOT AVBL
WATERTOWN      CLOUDY    71  58  62 SE10      30.08F
MADISON        LGT RAIN  73  59  61 SE13      30.05F
MIDDLETON      MOCLDY    73  59  62 SE12      30.05F
MONROE         CLOUDY    72  61  68 SE9       30.05F
JANESVILLE     NOT AVBL
$$

WIZ051-052-058>065-066-070>072-282200-
SOUTHEAST WISCONSIN

CITY           SKY/WX    TMP DP  RH WIND       PRES   REMARKS
MILWAUKEE      CLOUDY    68  55  63 E8        30.11F
WAUKESHA       MOSUNNY   66  52  59 SE9       30.12F
MILWAUKEE/TIMM SUNNY     70  48  46 SE8       30.12F
RACINE         PTSUNNY   69  57  65 E12       30.12F
BURLINGTON     PTSUNNY   71  53  53 E9        30.09F
KENOSHA        PTSUNNY   71  59  65 NE12      30.10F
FOND DU LAC    CLOUDY    70  56  61 SE9       30.09F
SHEBOYGAN      CLOUDY    67  53  61 S8        30.13F
WEST BEND      CLOUDY    68  52  56 SE9       30.12S
JUNEAU         CLOUDY    70  57  62 E10       30.10F
$$

LSZ147-162-282200-
LAKE SUPERIOR

STATION/POSITION TIME  TEMP    WIND        PRES    WAVE
                       AIR SEA DIR/SP/G            HT/PER
                 (UTC) (F)     (DEG/KT/KT) (MB)    (FT/S)
W MID LAKE BUOY  1950   60 60   80/  2/  2 1018.7F   1
DEVILS ISLAND    2000   62      60/  8/  9 1018.1F
PORT WING        2040   66      40/ 15/ 17 1016.9F
SAXON HARBOR     2000   66      50/ 11/ 15 1017.9F
$$

LMZ867-665-643>646-282200-
LAKE MICHIGAN

STATION/POSITION TIME  TEMP    WIND        PRES    WAVE
                       AIR SEA DIR/SP/G            HT/PER
                 (UTC) (F)     (DEG/KT/KT) (MB)    (FT/S)
N MID LAKE BUOY  1950   63 66  160/  6/  8 1021.3F   0
NORTHPORT PIER   2000   65     150/ 10/ 17 1020.3F
SISTER BAY       2011   67     190/ 14/ 17   N/A
KEWAUNEE LAKESHO 2000   65     160/ 12/ 13 1019.4F
SHEBOYGAN LAKESH 2000   65 69  160/ 10/ 11 1020.6F
ATWATER BUOY     2000   67     110/  8/ 10 1020.9F
MILWAUKEE LAKESH 2000   67      90/  9/ 11   N/A
S MID LAKE BUOY  1950   67 69   50/ 10/ 10 1019.7F
KENOSHA   LAKESH 2000   68      80/  9/ 11 1019.0F
$$

TC  - TEMPERATURE IN CELSIUS
VSB - VISIBILITY IN STATUTE MILES
WCI - WIND CHILL INDEX
HX  - HEAT INDEX




USA.gov is the U.S. government's official web portal to all federal, state and local government web resources and services.